Alpena, MI

3:14 AM EDT on October 23, 2017 (GMT -0400)
Alpena County Regional

Weather History for KAPN - October, 2014

Change the Weather History Date:

Saturday, October 18, 2014

  Actual Average Record
Temperature  
Mean Temperature 42 °F 45 °F  
Max Temperature 46 °F 55 °F 85 °F (1950)
Min Temperature 38 °F 36 °F 20 °F (1952)
Degree Days  
Heating Degree Days 23 20  
Month to date heating degree days 278 300  
Since 1 July heating degree days 625 657  
Cooling Degree Days 0 0  
Month to date cooling degree days 0 0  
Year to date cooling degree days 168 289  
Moisture  
Dew Point 35 °F    
Average Humidity 77    
Maximum Humidity 96    
Minimum Humidity 57    
Precipitation  
Precipitation 0.10 in 0.08 in 1.47 in (2007)
Month to date precipitation 1.88 1.60  
Year to date precipitation 27.93 23.30  
Snow  
Snow 0.00 in 0.00 in 1.80 in (1930)
Month to date snowfall 0.0 0.1  
Since 1 July snowfall 0.0 0.1  
Snow Depth 0.00 in    
Sea Level Pressure  
Sea Level Pressure 29.88 in    
Wind  
Wind Speed 13 mph (NW)    
Max Wind Speed 22 mph    
Max Gust Speed 33 mph    
Visibility 10 miles    
Events Rain    
T = Trace of Precipitation, MM = Missing Value Source: NWS Daily Summary

Daily Weather History Graph

Daily Weather History Graph

Search for Another Location

Airport or City:

Trip Planner

Search our weather history database for the weather conditions in past years. The results will help you decide how hot, cold, wet, or windy it might be!

Date:

Astronomy

Oct. 18, 2014 Rise Set
Actual Time 7:53 AM EDT 6:44 PM EDT
Civil Twilight 7:24 AM EDT 7:13 PM EDT
Nautical Twilight 6:50 AM EDT 7:47 PM EDT
Astronomical Twilight 6:15 AM EDT 8:21 PM EDT
Moon 2:38 AM EDT (10/18) 4:15 PM EDT (10/18)
Length of Visible Light 11h 49m
Length of Day
10h 50m
Waning Crescent, 24% of the Moon is Illuminated
Oct 18
Waning Crescent
Oct 23
New
Oct 30
First Quarter
Nov 6
Full
Nov 14
Last Quarter

Hourly Weather History & Observations

Time (EDT) Temp. Windchill Dew Point Humidity Pressure Visibility Wind Dir Wind Speed Gust Speed Precip Events Conditions
12:04 AM 43.0 °F 38.2 °F 41.0 °F 93% 29.59 in 8.0 mi NW 8.1 mph - 0.00 in Rain Light Rain
12:12 AM 43.0 °F 36.8 °F 41.0 °F 93% 29.60 in 7.0 mi NW 11.5 mph - 0.00 in Rain Light Rain
12:54 AM 43.0 °F 37.2 °F 41.0 °F 93% 29.62 in 9.0 mi NW 10.4 mph - 0.03 in Rain Light Rain
1:25 AM 42.1 °F 36.1 °F 41.0 °F 96% 29.63 in 10.0 mi NW 10.4 mph - 0.01 in Rain Light Rain
1:54 AM 42.1 °F 35.2 °F 39.9 °F 92% 29.65 in 9.0 mi NW 12.7 mph - 0.03 in Rain Light Rain
2:54 AM 42.1 °F 34.2 °F 39.9 °F 92% 29.67 in 8.0 mi NNW 16.1 mph 21.9 mph 0.02 in Rain Light Rain
3:08 AM 41.0 °F 32.5 °F 39.0 °F 93% 29.67 in 9.0 mi NNW 17.3 mph 27.6 mph 0.01 in Rain Light Rain
3:37 AM 41.0 °F 32.8 °F 39.0 °F 93% 29.68 in 10.0 mi NNW 16.1 mph 21.9 mph 0.01 in Rain Light Rain
3:52 AM 41.0 °F 32.5 °F 39.2 °F 93% 29.69 in 10.0 mi NNW 17.3 mph 24.2 mph 0.01 in Rain Light Rain
3:54 AM 41.0 °F 32.5 °F 39.0 °F 93% 29.70 in 10.0 mi NNW 17.3 mph 27.6 mph 0.01 in Rain Light Rain
4:54 AM 39.9 °F 31.4 °F 37.9 °F 93% 29.73 in 7.0 mi NNW 16.1 mph 26.5 mph 0.01 in Rain Light Rain
5:16 AM 39.9 °F 31.8 °F 37.9 °F 93% 29.73 in 9.0 mi NNW 15.0 mph 25.3 mph 0.00 in   Overcast
5:54 AM 39.9 °F 31.4 °F 37.9 °F 93% 29.77 in 6.0 mi NNW 16.1 mph - 0.00 in Rain Light Rain
6:37 AM 39.9 °F 31.1 °F 37.0 °F 89% 29.77 in 10.0 mi NNW 17.3 mph 25.3 mph 0.01 in   Overcast
6:54 AM 39.9 °F 30.8 °F 37.0 °F 89% 29.80 in 10.0 mi NNW 18.4 mph 25.3 mph 0.01 in Rain Light Rain
7:21 AM 39.9 °F 31.4 °F 37.0 °F 89% 29.79 in 10.0 mi NNW 16.1 mph - 0.01 in Rain Light Rain
7:54 AM 39.9 °F 32.1 °F 37.0 °F 89% 29.83 in 10.0 mi NNW 13.8 mph 24.2 mph 0.01 in Rain Light Rain
8:13 AM 39.9 °F 32.1 °F 37.0 °F 89% 29.83 in 10.0 mi NNW 13.8 mph - 0.00 in Rain Light Rain
8:54 AM 39.9 °F 31.8 °F 37.0 °F 89% 29.88 in 9.0 mi NNW 15.0 mph - 0.01 in   Overcast
9:54 AM 39.9 °F 32.9 °F 37.0 °F 89% 29.90 in 10.0 mi NNW 11.5 mph - 0.00 in   Overcast
10:54 AM 41.0 °F 33.5 °F 36.0 °F 82% 29.93 in 10.0 mi NNW 13.8 mph 24.2 mph N/A   Overcast
11:54 AM 41.0 °F 32.5 °F 35.1 °F 79% 29.96 in 10.0 mi NNW 17.3 mph 24.2 mph N/A   Overcast
12:54 PM 42.1 °F 35.7 °F 33.1 °F 70% 29.99 in 10.0 mi NNW 11.5 mph 25.3 mph N/A   Overcast
1:54 PM 45.0 °F 38.2 °F 33.1 °F 63% 30.00 in 10.0 mi NNW 15.0 mph - N/A   Overcast
2:39 PM 44.1 °F 35.7 °F 30.9 °F 60% 29.99 in 10.0 mi NNW 20.7 mph 25.3 mph N/A   Mostly Cloudy
2:54 PM 44.6 °F 37.2 °F 30.2 °F 57% 29.99 in 10.0 mi NNW 17.3 mph 25.3 mph N/A   Mostly Cloudy
3:54 PM 43.0 °F 35.4 °F 30.0 °F 60% 30.02 in 10.0 mi NNW 16.1 mph - N/A   Mostly Cloudy
4:54 PM 43.0 °F 35.4 °F 28.9 °F 58% 30.03 in 10.0 mi NNW 16.1 mph 21.9 mph N/A   Partly Cloudy
5:54 PM 44.1 °F 38.1 °F 30.0 °F 58% 30.05 in 10.0 mi NNW 11.5 mph 24.2 mph N/A   Mostly Cloudy
6:54 PM 41.0 °F 34.3 °F 30.9 °F 67% 30.08 in 10.0 mi NW 11.5 mph 18.4 mph N/A   Overcast
7:54 PM 39.9 °F 35.8 °F 30.9 °F 70% 30.10 in 10.0 mi NW 5.8 mph - N/A   Overcast
8:54 PM 37.9 °F 32.7 °F 30.9 °F 76% 30.11 in 10.0 mi West 6.9 mph - N/A   Overcast
9:54 PM 37.9 °F 34.4 °F 30.9 °F 76% 30.12 in 10.0 mi WNW 4.6 mph - N/A   Overcast
10:54 PM 37.9 °F 32.7 °F 30.9 °F 76% 30.14 in 10.0 mi WNW 6.9 mph - N/A   Overcast
11:10 PM 37.9 °F 34.4 °F 32.0 °F 79% 30.12 in 10.0 mi WNW 4.6 mph - N/A   Overcast
11:54 PM 37.9 °F 30.5 °F 28.9 °F 70% 30.14 in 10.0 mi North 11.5 mph - N/A   Overcast